View from above orbital plane
|
View from above satellite
|
Ground track
|
The orbit data is extracted from the following two-line orbital elements,
1 14129U 83058B 13138.64175230 .00000338 00000-0 00000+0 0 674
2 14129 026.5790 278.4657 6021718 259.0064 018.8899 02.05864818197123
| Epoch (UTC): | 18 May 2013 15:24:07 |
| Eccentricity: | 0.6021718 |
| inclination: | 26.5790° |
| perigee height: | 4006 km |
| apogee height: | 35442 km |
| right ascension of ascending node: | 278.4657° |
| argument of perigee: | 259.0064° |
| revolutions per day: | 2.05864818 |
| mean anomaly at epoch: | 18.8899° |
| orbit number at epoch: | 19712 |
The dashed part of the orbit path shows where the satellite is in the earth's shadow,
|
|